CAPE
0 0 0 0 0 0 0 0 0 0 0 0 0 0 0 0 0 0 0 0 0 0 0 0 0 0 0 0 0 0 0 0 0 0 0 0 0 0 0 0 0 0 0 0 0 0 0
4 0 0 0 0 0 0 0 0 0 0 0 0 0 0 0 0 0 0 0 0 0 0 0 0 0 0 0 0 0 0 0 0 0 0 0 0 0 0 0 0 0 0 0 0 0 0
13 2 1 0 0 0 0 0 0 0 0 0 0 0 0 0 0 0 0 0 0 0 0 0 0 0 0 0 0 0 0 0 0 0 0 0 0 0 0 0 0 0 0 0 0 0 0
43 11 4 2 0 0 0 0 0 0 0 0 0 0 0 0 0 0 0 0 0 0 0 0 0 0 0 0 0 0 0 0 0 0 0 0 0 0 0 0 0 0 0 0 0 0 0
29 45 24 6 4 0 0 0 0 0 0 0 0 0 0 0 0 0 0 0 0 0 0 0 0 0 0 0 0 0 0 0 0 0 0 0 0 0 0 0 0 0 0 0 0 0 0
45 30 50 18 11 6 0 0 0 0 0 0 0 0 0 0 0 0 0 0 0 0 0 0 0 0 0 0 0 0 0 0 0 0 0 0 0 0 0 0 0 0 0 0 0 0 0
69 72 39 51 14 11 5 0 0 0 0 0 0 0 0 0 0 0 0 0 0 0 0 0 0 0 0 0 0 0 0 0 0 0 0 0 0 0 0 0 0 0 0 0 0 0 0
83 61 71 39 47 33 3 7 0 0 0 0 0 0 0 0 0 0 0 0 1 0 0 0 0 0 0 0 0 0 0 0 0 0 0 0 0 0 0 0 0 0 0 0 0 0 0
94 83 50 69 39 37 18 21 2 0 0 0 0 0 0 0 0 0 0 0 0 0 0 0 0 0 0 0 0 0 0 0 0 0 0 0 0 0 0 0 0 0 0 0 0 0 0
94 90 81 61 69 42 27 0 4 0 0 0 0 0 0 0 0 0 0 0 0 0 8 2 0 0 0 0 0 0 0 0 0 0 0 0 0 0 0 0 0 0 0 0 0 0 0
111 101 87 60 65 41 35 1 0 4 0 0 0 0 0 0 0 0 0 0 0 0 2 0 0 0 0 0 0 0 0 0 0 0 0 0 0 0 0 0 0 0 0 0 0 0 0
99 102 96 85 68 60 56 27 0 3 0 0 0 0 0 0 0 0 0 0 0 0 0 0 0 0 0 0 0 0 0 0 0 0 0 0 0 0 0 0 0 0 0 0 0 0 0
121 97 99 93 85 70 68 56 4 2 1 0 0 0 0 0 0 0 0 0 21 5 1 0 0 0 0 0 0 0 0 0 0 0 0 0 0 0 0 0 0 0 0 0 0 0 0
133 131 98 99 92 86 82 63 9 1 7 0 0 0 0 0 0 0 0 43 19 0 0 0 0 0 0 0 0 0 0 0 0 0 0 0 0 0 0 0 0 0 0 0 0 0 0
216 139 126 107 112 104 95 78 38 0 3 0 0 1 1 1 0 0 11 3 0 0 0 0 0 0 0 0 0 0 0 0 0 0 0 0 0 0 0 0 0 0 0 0 0 0 0
241 235 152 130 118 101 99 91 54 1 0 0 0 0 0 2 1 0 7 0 0 3 3 3 5 0 0 0 0 0 0 0 0 0 0 0 0 0 0 0 0 0 0 0 0 0 0
211 203 182 183 136 104 99 103 68 3 0 0 0 0 0 3 1 0 0 0 0 0 0 3 6 7 0 0 0 0 0 0 0 0 0 0 0 0 0 0 0 0 0 0 0 0 0
125 171 166 119 138 127 108 117 97 6 40 0 0 0 0 2 1 0 0 1 0 0 0 0 0 1 1 0 0 0 0 0 0 0 0 0 0 0 0 0 0 0 0 0 0 0 0
36 112 144 159 200 132 138 143 117 37 34 0 0 0 2 0 0 0 6 5 2 2 2 8 2 0 0 0 0 0 0 0 0 0 0 0 0 0 0 0 0 0 0 0 0 0 0
52 55 112 153 226 202 177 159 158 85 71 0 0 0 0 0 1 0 0 8 9 2 2 4 5 0 0 0 0 0 0 0 0 0 0 0 0 0 0 0 0 0 0 0 0 0 0
57 70 123 134 211 214 212 199 170 117 24 0 0 0 0 0 0 1 0 12 0 14 9 5 8 0 0 1 0 0 0 0 0 0 0 0 0 0 0 0 0 0 0 0 0 0 0
21 77 66 106 158 180 221 206 161 103 3 0 0 0 2 0 4 1 0 0 0 3 6 11 0 1 0 0 0 0 0 0 0 0 0 0 0 0 0 0 0 0 0 0 0 0 0
6 61 79 63 154 228 227 168 132 12 1 0 1 0 0 4 1 0 1 6 1 0 0 0 0 0 0 0 0 0 0 0 0 0 0 0 0 0 0 0 0 0 0 0 0 0 0
55 76 55 65 135 161 53 12 5 3 0 0 0 0 0 0 0 0 3 0 0 0 0 0 0 0 0 0 0 0 0 0 0 0 0 0 0 0 0 0 0 0 0 0 0 0 0
76 70 79 80 63 39 8 0 0 0 0 0 0 0 0 0 0 2 1 2 4 0 0 0 0 0 0 0 0 0 0 0 0 0 0 0 0 0 0 0 0 0 0 0 0 0 0
67 72 79 66 57 40 11 0 0 0 0 0 0 0 0 0 0 0 0 0 0 0 0 0 0 0 0 0 0 0 0 0 0 0 0 0 0 0 0 0 0 0 0 0 0 0 0
56 61 63 59 50 40 23 10 0 0 0 0 0 0 0 0 2 0 0 0 0 0 0 0 0 0 0 0 0 0 0 0 0 0 0 0 0 0 0 0 0 0 0 0 0 0 0
3 7 20 31 28 13 7 2 0 0 0 0 0 0 0 0 0 0 0 0 0 0 0 0 0 0 0 0 0 0 0 0 0 0 0 0 0 0 0 0 0 0 0 0 0 0 0
3 1 0 0 0 0 0 0 0 0 0 0 0 0 0 0 0 0 0 0 0 0 0 0 0 0 0 0 0 0 0 0 0 0 0 0 0 0 0 0 0 0 0 0 0 0 0
CIN
0 0 0 0 0 0 0 0 0 0 0 0 0 0 0 0 0 0 0 0 0 0 0 0 0 0 0 0 0 0 0 0 0 0 0 0 0 0 0 0 0 0 0 0 0 0 0
0 0 0 0 0 0 0 0 0 0 0 0 0 0 0 0 0 0 0 0 0 0 0 0 0 0 0 0 0 0 0 0 0 0 0 0 0 0 0 0 0 0 0 0 0 0 0
0 -1 0 0 0 0 0 0 0 0 0 0 0 0 0 0 0 0 0 0 0 0 0 0 0 0 0 0 0 0 0 0 0 0 0 0 0 0 0 0 0 0 0 0 0 0 0
0 0 0 0 0 0 0 0 0 0 0 0 0 0 0 0 0 0 0 0 0 0 0 0 0 0 0 0 0 0 0 0 0 0 0 0 0 0 0 0 0 0 0 0 0 0 0
0 0 0 0 0 0 0 0 0 0 0 0 0 0 0 0 0 0 0 0 0 0 0 0 0 0 0 0 0 0 0 0 0 0 0 0 0 0 0 0 0 0 0 0 0 0 0
0 0 0 0 0 0 0 0 0 0 0 0 0 0 0 0 0 0 0 0 0 0 0 0 0 0 0 0 0 0 0 0 0 0 0 0 0 0 0 0 0 0 0 0 0 0 0
0 0 0 0 0 0 0 0 0 0 0 0 0 0 0 0 0 0 0 0 0 0 0 0 0 0 0 0 0 0 0 0 0 0 0 0 0 0 0 0 0 0 0 0 0 0 0
0 0 0 0 0 0 0 0 0 0 0 0 0 0 0 0 0 0 0 0 -2 0 0 0 0 0 0 0 0 0 0 0 0 0 0 0 0 0 0 0 0 0 0 0 0 0 0
0 0 0 0 0 0 0 0 -3 0 0 0 0 0 0 0 0 0 0 0 0 0 0 0 0 0 0 0 0 0 0 0 0 0 0 0 0 0 0 0 0 0 0 0 0 0 0
0 0 0 0 0 0 0 0 0 0 0 0 0 0 0 0 0 0 0 0 0 0 0 -2 0 0 0 0 0 0 0 0 0 0 0 0 0 0 0 0 0 0 0 0 0 0 0
0 0 0 0 0 0 -1 -1 0 0 0 0 0 0 0 0 0 0 0 0 0 0 0 0 0 0 0 0 0 0 0 0 0 0 0 0 0 0 0 0 0 0 0 0 0 0 0
0 0 0 0 0 0 0 -2 0 -4 0 0 0 0 0 0 0 0 0 0 0 0 0 0 0 0 0 0 0 0 0 0 0 0 0 0 0 0 0 0 0 0 0 0 0 0 0
0 0 0 0 0 0 0 -1 -13 0 0 0 0 0 0 0 0 0 0 0 -7 -14 -1 0 0 0 0 0 0 0 0 0 0 0 0 0 0 0 0 0 0 0 0 0 0 0 0
0 0 0 0 0 0 0 0 -6 -4 -4 0 0 0 0 0 0 0 0 -2 -6 0 0 0 0 0 0 0 0 0 0 0 0 0 0 0 0 0 0 0 0 0 0 0 0 0 0
0 0 0 0 0 0 0 0 -1 0 -8 0 0 0 -1 0 0 0 -10 -2 0 0 0 0 0 0 0 0 0 0 0 0 0 0 0 0 0 0 0 0 0 0 0 0 0 0 0
0 0 0 0 0 0 0 0 -1 -1 0 0 0 0 0 0 -3 -2 0 0 0 -4 -9 -33 -5 0 0 0 0 0 0 0 0 0 0 0 0 0 0 0 0 0 0 0 0 0 0
0 0 0 0 0 0 0 0 -1 -27 -6 0 0 0 0 -1 -2 0 0 0 0 0 0 -26 -3 0 0 0 0 0 0 0 0 0 0 0 0 0 0 0 0 0 0 0 0 0 0
0 0 0 0 0 0 0 0 -1 -9 -2 0 0 0 0 0 0 0 0 0 0 0 0 0 0 0 0 0 0 0 0 0 0 0 0 0 0 0 0 0 0 0 0 0 0 0 0
0 -1 0 0 0 0 0 0 -1 -6 -4 0 0 0 0 0 0 0 0 0 0 0 0 0 0 0 0 0 0 0 0 0 0 0 0 0 0 0 0 0 0 0 0 0 0 0 0
0 -10 0 0 0 0 0 0 -1 -5 -2 0 0 0 0 0 0 0 0 0 0 0 0 0 0 0 0 0 0 0 0 0 0 0 0 0 0 0 0 0 0 0 0 0 0 0 0
0 -1 -3 0 0 0 0 0 -1 -2 -19 0 0 0 0 0 0 0 0 0 0 0 0 0 0 0 0 0 0 0 0 0 0 0 0 0 0 0 0 0 0 0 0 0 0 0 0
0 0 0 0 0 0 0 0 -1 -3 0 0 0 0 0 0 0 0 0 0 0 0 0 0 0 0 0 0 0 0 0 0 0 0 0 0 0 0 0 0 0 0 0 0 0 0 0
0 0 0 0 0 0 0 -2 -6 -2 0 0 -1 0 0 0 0 0 0 0 0 0 0 0 0 0 0 0 0 0 0 0 0 0 0 0 0 0 0 0 0 0 0 0 0 0 0
0 0 0 -1 0 -1 -1 -3 0 0 0 0 0 0 0 0 0 0 0 0 0 0 0 0 0 0 0 0 0 0 0 0 0 0 0 0 0 0 0 0 0 0 0 0 0 0 0
0 -2 0 0 0 0 0 0 0 0 0 0 0 0 0 0 0 0 0 0 0 -1 0 0 0 0 0 0 0 0 0 0 0 0 0 0 0 0 0 0 0 0 0 0 0 0 0
0 0 0 0 0 0 -3 -1 0 0 0 0 0 0 0 0 0 0 0 0 0 0 0 0 0 0 0 0 0 0 0 0 0 0 0 0 0 0 0 0 0 0 0 0 0 0 0
0 0 0 -2 -4 -5 -17 -26 0 0 0 0 0 0 0 0 0 0 0 0 0 0 0 0 0 0 0 0 0 0 0 0 0 0 0 0 0 0 0 0 0 0 0 0 -3 0 0
-3 -21 -29 -34 -41 -69 -84 -100 0 0 0 0 0 0 0 0 0 0 0 0 0 0 0 0 0 0 0 0 0 0 0 0 0 0 0 0 0 0 0 0 0 0 0 0 0 0 0
0 0 0 0 0 0 0 0 0 0 0 0 0 0 0 0 0 0 0 0 0 0 0 0 0 0 0 0 0 0 0 0 0 0 0 0 0 0 0 0 0 0 0 0 0 0 0
Wind_Speed
27 27 26 26 25 24 24 23 21 20 19 18 17 16 15 14 12 11 10 8 5 4 7 9 11 14 7 4 12 7 8 4 2 1 3 2 2 1 1 3 5 6 6 5 6 10 7
17 26 27 26 26 26 26 25 23 21 21 20 19 18 16 14 12 11 10 9 8 2 5 7 10 9 2 7 4 5 4 2 2 1 3 2 3 3 5 5 3 3 6 8 7 9 6
19 19 26 28 27 27 27 25 24 23 22 21 20 19 17 16 13 12 11 9 7 4 3 5 8 2 2 18 5 4 7 5 4 4 4 5 3 5 0 5 2 4 8 10 6 6 7
20 20 20 25 29 28 28 27 25 24 24 23 22 19 17 16 14 12 12 10 7 5 4 4 2 1 10 7 4 10 5 7 9 8 7 9 4 4 6 4 7 5 3 6 3 4 5
22 21 20 19 24 29 29 28 27 26 25 24 23 20 18 16 14 13 10 7 7 5 5 3 1 2 12 9 5 9 9 6 5 5 6 3 6 4 3 4 4 4 6 7 7 5 2
23 22 22 22 20 22 29 29 28 27 26 24 23 22 20 18 15 13 8 4 2 3 3 4 2 2 8 7 4 3 7 4 3 3 3 3 3 3 2 4 6 6 6 5 9 1 4
24 23 23 22 22 21 24 30 30 28 27 26 25 23 21 19 17 14 9 1 3 4 4 12 11 6 5 3 5 2 3 2 2 3 6 3 4 12 12 9 6 4 5 9 13 11 3
26 25 24 24 21 21 23 27 31 30 29 28 26 24 22 20 19 19 7 5 3 1 8 15 11 13 18 6 5 12 1 3 5 8 4 1 12 13 9 7 8 8 12 15 13 11 3
27 27 26 26 25 23 23 23 29 30 31 30 28 26 22 19 20 12 7 3 2 6 6 8 12 13 15 11 17 17 9 6 7 6 8 11 7 11 11 7 8 12 14 13 10 6 5
29 28 26 26 26 26 24 23 23 31 31 30 28 26 24 27 13 9 5 8 6 6 6 6 8 9 13 5 12 20 23 13 8 17 5 10 12 12 8 10 8 14 9 12 8 3 5
32 30 29 27 28 28 27 23 23 25 31 30 29 28 30 29 13 10 11 10 8 5 8 3 6 5 7 14 3 5 15 13 24 11 9 8 5 9 15 18 11 10 12 10 6 5 3
32 32 31 29 29 28 28 25 22 25 28 32 31 32 36 17 7 10 19 15 6 6 16 5 4 7 7 13 4 2 5 5 8 10 11 10 3 5 8 7 8 3 4 5 4 3 7
34 34 32 31 30 30 30 28 23 24 26 31 32 34 32 15 12 21 21 9 5 13 3 7 7 8 9 7 6 4 6 14 10 7 15 9 15 5 5 5 1 4 6 1 3 2 8
36 35 34 33 31 31 31 30 24 23 26 29 32 34 29 13 22 28 15 9 15 17 17 1 3 4 11 7 5 6 6 8 7 4 3 10 5 4 5 15 9 8 10 7 8 6 3
38 38 36 34 33 33 32 30 26 24 26 27 26 18 14 12 27 20 15 19 22 18 12 10 7 2 4 8 6 12 8 7 9 8 8 5 3 4 6 3 4 5 4 2 6 2 1
40 39 38 36 34 34 32 30 27 24 21 29 13 12 5 24 27 19 16 18 9 6 8 8 15 11 11 11 9 12 9 1 7 5 5 7 3 2 4 2 7 3 5 4 2 4 6
43 41 39 37 35 34 33 32 29 24 21 32 9 9 5 22 15 16 14 10 8 5 7 12 15 15 13 10 8 6 5 1 3 3 5 5 5 3 2 1 6 2 2 7 5 4 5
44 42 40 38 37 35 33 33 29 23 20 27 8 7 9 15 12 6 11 11 6 13 4 2 2 11 13 16 15 17 10 2 1 6 7 2 4 5 1 3 4 1 4 4 6 5 2
47 44 41 38 36 35 33 33 30 25 37 7 11 4 0 9 12 9 9 9 7 12 10 9 11 11 6 13 8 12 2 5 2 3 7 6 1 4 2 3 2 3 3 5 5 3 5
48 45 41 38 37 34 32 33 31 27 41 8 6 6 3 3 2 12 10 8 9 11 10 8 6 6 7 9 1 10 10 4 2 2 8 6 4 3 7 4 4 4 5 5 5 4 3
48 46 42 39 36 33 33 33 32 31 38 7 4 5 6 13 8 15 12 8 15 11 7 12 4 9 11 7 5 5 6 5 4 4 5 4 4 3 4 4 2 3 4 6 7 7 8
48 42 44 37 33 32 32 32 32 36 29 4 8 8 5 15 18 15 7 13 21 7 10 12 10 14 7 6 4 8 8 2 3 3 3 3 3 3 3 3 5 9 8 10 11 12 12
27 38 37 33 31 30 30 29 26 32 14 5 4 5 7 12 15 14 7 8 17 13 5 12 17 17 11 6 7 6 7 5 5 6 3 5 5 4 2 4 6 11 11 14 6 8 8
49 39 35 29 22 22 22 26 23 18 7 6 8 6 7 10 12 8 18 22 18 6 14 18 14 10 9 15 12 10 9 5 4 3 4 5 5 3 4 4 3 4 1 6 10 9 10
44 39 37 35 32 31 32 32 29 24 21 12 0 6 5 10 11 18 24 19 16 14 13 13 5 12 13 10 5 5 2 2 4 6 7 5 4 4 5 5 9 7 7 6 6 8 8
42 40 37 35 33 29 29 27 26 23 21 8 4 3 8 14 2 19 18 14 12 10 8 7 11 7 9 4 4 2 5 3 3 3 2 5 4 5 4 5 7 4 3 3 4 6 7
35 36 35 33 31 29 28 25 24 23 19 8 2 1 11 14 10 14 6 8 7 7 9 7 5 4 5 3 3 3 3 3 4 5 6 4 2 8 6 4 7 3 4 3 5 6 5
33 33 32 31 30 29 28 27 24 23 22 9 4 5 8 11 7 10 7 8 4 4 11 7 5 3 3 5 4 4 3 4 2 1 3 5 6 4 2 2 9 1 4 2 3 7 6
31 31 31 31 30 30 29 27 28 25 21 16 11 6 7 11 6 7 6 2 7 7 11 4 4 4 4 6 1 3 3 2 5 3 2 2 6 5 9 9 7 5 8 10 11 11 13
Wind_Direction
226 226 224 222 218 216 214 216 213 211 213 210 208 210 212 219 212 227 243 254 248 293 323 337 344 336 1 6 247 286 323 298 304 289 243 104 55 145 238 292 317 224 259 271 267 286 270
298 232 224 222 219 217 217 214 212 212 209 211 210 209 209 211 213 203 225 241 261 271 323 328 332 330 28 272 250 282 318 358 258 200 276 156 183 180 251 229 197 271 284 281 276 267 251
275 275 243 222 221 218 218 216 212 209 211 209 212 211 206 207 206 200 209 230 245 273 300 315 324 348 237 250 245 288 305 239 225 221 264 248 195 149 105 311 273 282 308 312 257 242 241
270 257 265 248 220 218 217 215 213 211 209 209 208 209 204 202 200 200 199 207 224 255 280 299 350 81 251 253 274 273 172 267 229 236 207 244 168 172 157 251 337 333 321 329 284 334 251
273 273 259 259 252 220 216 215 212 210 210 208 208 205 202 196 194 194 198 194 225 254 240 187 93 191 268 293 263 257 175 224 178 211 207 186 117 192 119 106 355 333 250 252 301 244 215
268 269 266 257 257 248 222 213 213 212 209 205 204 202 197 193 186 181 167 162 224 309 209 163 258 344 265 239 264 246 183 201 182 128 78 120 93 186 60 116 225 207 253 265 263 281 22
269 267 265 268 252 254 242 217 211 210 208 204 201 200 195 186 176 147 116 178 248 236 255 197 184 236 299 243 319 338 18 172 107 97 170 185 161 215 197 199 211 190 222 263 276 282 333
266 266 264 261 262 258 249 239 216 207 206 203 200 196 190 180 163 149 156 199 196 125 292 230 241 245 275 295 289 272 195 209 162 211 150 96 224 231 184 205 224 254 263 262 286 271 256
262 260 260 260 258 253 252 252 229 212 204 202 198 190 183 163 139 137 174 188 72 94 270 244 217 219 230 205 238 238 181 191 193 211 201 202 217 215 214 209 210 231 240 260 252 297 275
260 257 256 257 254 255 249 244 254 217 205 200 192 185 166 139 137 146 170 131 96 77 277 238 230 246 212 219 261 230 219 193 200 217 202 238 225 226 221 234 197 246 212 234 230 166 256
257 253 251 249 251 249 249 239 241 235 207 199 187 178 159 161 134 183 154 130 91 68 273 185 193 177 175 171 255 234 201 198 220 189 160 217 196 203 226 237 220 257 184 183 189 199 134
251 249 247 246 246 245 242 240 232 236 214 199 188 174 161 170 130 149 135 129 87 134 234 264 207 164 144 209 255 64 111 120 207 231 242 247 223 185 197 210 183 125 83 62 57 109 253
249 247 245 242 242 241 240 237 234 231 223 206 191 172 166 163 165 146 138 132 172 211 130 205 200 182 189 177 223 183 169 174 175 162 225 229 235 215 186 226 190 131 107 286 282 205 243
248 246 241 240 239 238 235 232 229 230 214 204 185 173 184 168 146 150 146 163 211 214 209 133 105 176 196 158 221 198 152 192 224 155 128 192 255 160 174 209 191 190 171 175 210 198 251
245 244 241 238 234 233 229 228 231 226 224 195 182 184 184 166 154 155 155 195 219 202 180 210 253 326 220 202 185 198 200 199 204 167 180 171 204 299 34 102 126 170 176 137 105 34 79
242 238 237 236 230 228 225 224 224 221 217 186 179 182 196 162 162 162 182 206 220 201 140 178 202 182 209 208 199 192 185 184 168 174 126 197 123 303 279 356 30 133 147 116 22 199 243
235 235 232 231 227 224 222 219 219 215 216 180 169 168 158 168 173 174 183 206 199 228 162 181 204 200 210 197 218 216 219 353 144 90 110 131 119 238 4 234 176 65 82 51 82 144 189
230 227 226 224 226 220 217 214 211 200 191 160 146 170 180 163 177 187 157 172 165 166 185 151 230 196 196 193 186 206 203 136 81 149 138 133 114 140 130 9 36 100 137 132 139 229 247
226 222 220 219 217 212 212 210 208 193 174 147 143 113 91 207 171 190 131 146 147 144 167 171 188 185 208 186 174 215 188 12 127 105 156 168 136 112 33 341 44 122 104 108 99 93 197
224 212 213 212 210 207 206 207 207 201 183 108 113 134 67 319 88 170 146 164 140 149 147 161 151 165 145 153 141 173 167 7 48 100 97 104 146 167 202 128 127 160 173 131 135 122 193
212 207 202 198 200 201 202 204 202 196 181 113 132 165 149 176 176 163 163 154 149 141 153 157 145 185 163 136 157 159 120 133 36 50 37 82 149 113 96 112 157 178 195 180 183 188 214
201 190 182 182 187 192 199 201 196 188 172 120 137 142 162 148 134 138 164 164 161 131 140 165 155 163 136 123 157 149 145 130 158 55 75 25 124 110 167 195 239 254 217 215 219 240 250
141 130 154 170 182 191 195 193 207 169 165 114 157 134 116 139 147 154 180 149 155 123 123 151 141 137 140 122 101 84 75 93 139 128 121 135 135 114 191 71 350 298 219 215 196 237 220
79 98 102 110 136 160 139 126 118 125 121 117 139 107 88 129 160 155 145 133 141 110 134 137 131 112 122 113 86 58 49 62 125 147 121 138 117 100 152 70 290 241 58 154 204 234 240
76 78 87 95 93 92 92 97 96 95 103 109 38 85 115 120 130 130 136 130 106 99 111 109 90 123 117 79 79 102 11 5 244 220 187 156 121 122 140 195 293 280 212 173 179 259 238
67 71 78 81 83 80 80 84 94 93 92 79 30 226 113 119 115 123 108 130 122 113 96 108 77 69 80 82 106 138 147 179 204 162 271 140 133 133 129 164 235 214 204 136 106 273 177
63 67 67 66 70 70 70 73 81 89 92 92 55 335 90 106 116 112 111 132 141 113 107 98 122 77 56 105 102 123 169 175 205 176 155 134 92 199 197 214 274 291 316 126 178 244 209
54 56 60 62 63 61 62 60 65 72 82 86 81 37 125 83 55 121 116 138 121 89 128 169 87 354 60 77 118 172 151 184 161 191 176 162 156 186 101 158 254 107 12 219 267 304 280
52 54 55 58 59 60 59 55 54 53 60 75 64 23 68 83 121 74 77 57 116 135 122 33 136 126 161 98 120 112 127 118 159 197 169 235 189 189 170 212 219 198 188 232 263 257 268